This demonstration page uses our WeatherBlox Daily Observations layout. Learn more.

Left ArrowRight Arrow

Hourly Observations for April 18, 2018

Temp ( °F °C ) Dew Point ( °F °C ) Humidity (%) Winds ( mph kmh ) Pressure ( in mb ) Visibility ( mi km ) Precip ( " mm )
12:53 am 00:53 Cloudy with Light Rain 42 5.6 37 2.8 82 82 NNE 16 26 29.78 1008 10 16 0.00 0.03
1:49 am 01:49 Cloudy with Light Rain 37 3 36 2 93 93 NNE 17 28 29.83 1010 10 16 0.06 1.52
1:53 am 01:53 Cloudy with Light Rain 37 2.8 36 2.2 96 96 NNE 15 24 29.78 1008 10 16 0.06 1.52
2:03 am 02:03 Cloudy with Light Rain 37 2.8 35 1.7 93 93 NNE 18 30 29.80 1009 10 16 0.00 0.03
2:53 am 02:53 Mostly Cloudy 35 1.7 33 0.6 93 93 N 15 24 29.80 1009 10 16 0.00 0.03
3:53 am 03:53 Cloudy 35 1.7 34 1.1 96 96 NW 16 26 29.84 1011 10 16 0.00 0.00
4:38 am 04:38 Cloudy 36 2 34 1 93 93 NNW 15 24 29.88 1012 10 16 0.00 0.00
4:53 am 04:53 Cloudy 36 2.2 34 1.1 93 93 NW 17 28 29.85 1011 10 16 0.00 0.00
5:41 am 05:41 Cloudy 36 2.2 34 1.1 93 93 NW 23 37 29.94 1014 10 16 0.00 0.00
5:53 am 05:53 Cloudy 36 2.2 34 1.1 93 93 NW 18 30 29.88 1012 10 16 0.00 0.00
6:08 am 06:08 Mostly Cloudy 36 2 34 1 93 93 NW 21 33 29.94 1014 10 16 0.00 0.00
6:53 am 06:53 Cloudy 35 1.7 31 -0.6 85 85 NW 23 37 29.92 1013 10 16 0.00 0.00
7:53 am 07:53 Mostly Cloudy 34 1.1 30 -1.1 85 85 NW 24 39 29.96 1014 10 16 0.00 0.00
8:53 am 08:53 Cloudy 33 0.6 29 -1.7 85 85 NNW 32 52 29.99 1016 10 16 0.00 0.00
9:53 am 09:53 Cloudy 33 0.6 28 -2.2 82 82 NNW 28 44 30.04 1017 10 16 0.00 0.00
10:53 am 10:53 Cloudy 36 2.2 29 -1.7 76 76 NNW 30 48 30.08 1019 10 16 0.00 0.00
11:53 am 11:53 Cloudy 38 3.3 30 -1.1 73 73 NNW 25 41 30.12 1020 10 16 0.00 0.00
12:11 pm 12:11 Cloudy 39 3.9 29 -1.7 67 67 NNW 29 46 30.15 1021 10 16 0.00 0.00
12:32 pm 12:32 Cloudy 39 4 30 -1 70 70 NW 29 46 30.15 1021 10 16 0.00 0.00
12:53 pm 12:53 Cloudy 40 4.4 30 -1.1 68 68 NW 25 41 30.14 1021 10 16 0.00 0.00
1:03 pm 13:03 Cloudy 40 4.4 30 -1.1 68 68 NW 22 35 30.15 1021 10 16 0.00 0.00
1:10 pm 13:10 Cloudy 40 4.4 30 -1.1 68 68 NW 25 41 30.15 1021 10 16 0.00 0.00
1:40 pm 13:40 Cloudy 43 6 30 -1 61 61 NNW 23 37 30.15 1021 10 16 0.00 0.00
1:53 pm 13:53 Cloudy 42 5.6 30 -1.1 62 62 NNW 24 39 30.16 1021 10 16 0.00 0.00
2:53 pm 14:53 Mostly Cloudy 46 7.8 32 0 58 58 NNW 30 48 30.17 1022 10 16 0.00 0.00
3:53 pm 15:53 Mostly Cloudy 46 7.8 32 0 58 58 N 29 46 30.19 1023 10 16 0.00 0.00
4:53 pm 16:53 Partly Cloudy 46 7.8 32 0 58 58 NNW 24 39 30.21 1023 10 16 0.00 0.00
5:53 pm 17:53 Mostly Sunny 46 7.8 31 -0.6 56 56 NNW 25 41 30.22 1023 10 16 0.00 0.00
6:53 pm 18:53 Sunny 44 6.7 30 -1.1 58 58 N 20 31 30.24 1024 10 16 0.00 0.00
7:53 pm 19:53 Sunny 42 5.6 31 -0.6 65 65 N 13 20 30.25 1025 10 16 0.00 0.00
8:53 pm 20:53 Clear 36 2.2 29 -1.7 76 76 NNW 5 7 30.28 1025 10 16 0.00 0.00
9:53 pm 21:53 Clear 34 1.1 28 -2.2 79 79 NNW 7 11 30.31 1026 10 16 0.00 0.00
10:53 pm 22:53 Clear 29 -1.7 26 -3.3 89 89 NW 7 11 30.33 1027 10 16 0.00 0.00
11:53 pm 23:53 Clear 32 0 28 -2.2 85 85 NNW 10 17 30.33 1027 10 16 0.00 0.00

Powered by AerisWeather